This is the latest recevied weather packets stored in our database for station/object JR5YHL-13. If no packets are shown the sender has not sent any weather packets the latest 10 day(s).
| Time | Temp. | Humidity | Pressure | Rain* | Wind** | Luminosity | Snow |
|---|---|---|---|---|---|---|---|
| 1777859996 | 20.56° C | 39% | 1008 hPa | 0 mm | - | - | - |
| 1777859398 | 20.56° C | 40% | 1007.9 hPa | 0 mm | - | - | - |
| 1777858800 | 20.56° C | 38% | 1008 hPa | 0 mm | - | - | - |
| 1777858202 | 21.11° C | 41% | 1008 hPa | 0 mm | - | - | - |
| 1777857605 | 21.11° C | 39% | 1007.7 hPa | 0 mm | - | - | - |
| 1777857007 | 20.56° C | 41% | 1007.4 hPa | 0 mm | - | - | - |
| 1777856409 | 20.56° C | 40% | 1007.5 hPa | 0 mm | - | - | - |
| 1777855811 | 21.11° C | 39% | 1007.4 hPa | 0 mm | - | - | - |
| 1777855214 | 21.67° C | 40% | 1007.4 hPa | 0 mm | - | - | - |
| 1777854616 | 22.22° C | 39% | 1007.2 hPa | 0 mm | - | - | - |
| 1777854018 | 22.78° C | 39% | 1007.2 hPa | 0 mm | - | - | - |
| 1777853420 | 23.33° C | 42% | 1007.2 hPa | 0 mm | - | - | - |
| 1777852823 | 22.78° C | 43% | 1007.1 hPa | 0 mm | - | - | - |
| 1777852225 | 21.67° C | 43% | 1007.1 hPa | 0 mm | - | - | - |
| 1777851627 | 22.22° C | 44% | 1007 hPa | 0 mm | - | - | - |
| 1777851030 | 21.67° C | 51% | 1007 hPa | 0 mm | - | - | - |
| 1777850432 | 21.67° C | 55% | 1007 hPa | 0 mm | - | - | - |
| 1777849834 | 21.11° C | 55% | 1006.9 hPa | 0 mm | - | - | - |
| 1777849236 | 21.11° C | 59% | 1006.7 hPa | 0 mm | - | - | - |
| 1777848639 | 20° C | 61% | 1006.9 hPa | 0 mm | - | - | - |
| 1777848041 | 20° C | 65% | 1006.9 hPa | 0 mm | - | - | - |
| 1777847443 | 19.44° C | 69% | 1006.6 hPa | 0 mm | - | - | - |
| 1777846845 | 19.44° C | 79% | 1006.5 hPa | 0 mm | - | - | - |
| 1777846248 | 18.33° C | 83% | 1006.6 hPa | 0 mm | - | - | - |
| 1777845650 | 17.78° C | 86% | 1006.5 hPa | 0 mm | - | - | - |
* Rain latest hour (hover to see other rain measurements)
** Current wind speed in m/s (hover to see current wind gust speed)